ID TEMP HUMIDITY DATE
1 28 22 2024-05-15 09:15:03
2 28 27 2024-05-15 09:04:59
3 28 45 2024-05-15 08:54:54
4 28 44 2024-05-15 08:44:47
5 28 45 2024-05-15 08:34:43
6 27 44 2024-05-15 08:24:38
7 27 43 2024-05-15 08:14:36
8 27 21 2024-05-15 08:04:33
9 27 21 2024-05-15 07:54:33
10 26 21 2024-05-15 07:44:32
11 26 21 2024-05-15 07:34:31
12 26 21 2024-05-15 07:24:30
13 26 21 2024-05-15 07:14:30
14 26 21 2024-05-15 07:04:29
15 26 21 2024-05-15 06:54:28
16 26 21 2024-05-15 06:44:28
17 26 21 2024-05-15 06:34:27
18 27 21 2024-05-15 06:24:26
19 26 21 2024-05-15 06:14:26
20 26 22 2024-05-15 06:04:24
21 26 21 2024-05-15 05:54:24
22 26 19 2024-05-15 05:44:23
23 26 19 2024-05-15 05:34:22
24 26 19 2024-05-15 05:24:22
25 26 19 2024-05-15 05:14:21
26 27 19 2024-05-15 05:04:19
27 26 21 2024-05-15 04:54:18
28 27 37 2024-05-15 04:44:18
29 26 27 2024-05-15 04:34:17
30 26 27 2024-05-15 04:24:16
31 26 27 2024-05-15 04:14:16
32 26 27 2024-05-15 04:04:15
33 26 28 2024-05-15 03:54:15
34 26 28 2024-05-15 03:44:14
35 27 20 2024-05-15 03:34:14
36 27 19 2024-05-15 03:24:13
37 27 20 2024-05-15 03:14:12
38 27 20 2024-05-15 03:04:11
39 27 20 2024-05-15 02:54:11
40 27 20 2024-05-15 02:44:09
41 27 19 2024-05-15 02:34:08
42 27 20 2024-05-15 02:24:07
43 27 19 2024-05-15 02:14:07
44 27 19 2024-05-15 02:04:06
45 27 20 2024-05-15 01:54:05
46 27 20 2024-05-15 01:44:05
47 27 19 2024-05-15 01:34:04
48 27 19 2024-05-15 01:24:03
49 27 19 2024-05-15 01:14:01
50 27 19 2024-05-15 01:03:58
51 27 19 2024-05-15 00:53:55
52 27 19 2024-05-15 00:43:52
53 27 19 2024-05-15 00:33:49
54 27 19 2024-05-15 00:23:47
55 27 20 2024-05-15 00:13:44
56 27 19 2024-05-15 00:03:42
57 28 19 2024-05-14 23:53:38
58 28 19 2024-05-14 23:43:35
59 28 19 2024-05-14 23:33:31
60 28 19 2024-05-14 23:23:28
61 28 20 2024-05-14 23:13:26
62 28 20 2024-05-14 23:03:24
63 28 19 2024-05-14 22:53:22
64 28 19 2024-05-14 22:43:19
65 28 19 2024-05-14 22:33:17
66 28 19 2024-05-14 22:23:14
67 28 19 2024-05-14 22:13:12
68 28 20 2024-05-14 22:03:09
69 28 21 2024-05-14 21:53:07
70 28 21 2024-05-14 21:43:04
71 28 21 2024-05-14 21:33:02
72 28 21 2024-05-14 21:22:59
73 28 20 2024-05-14 21:12:50
74 28 20 2024-05-14 21:02:43
75 28 21 2024-05-14 20:52:40
76 29 36 2024-05-14 20:42:37
77 28 30 2024-05-14 20:32:33
78 28 30 2024-05-14 20:22:27
79 28 30 2024-05-14 20:12:22
80 28 30 2024-05-14 20:02:19
81 28 29 2024-05-14 19:52:16
82 28 29 2024-05-14 19:42:14
83 28 21 2024-05-14 19:32:10
84 28 21 2024-05-14 19:22:08
85 28 21 2024-05-14 19:12:05
86 28 22 2024-05-14 19:02:03
87 28 22 2024-05-14 18:52:00
88 28 22 2024-05-14 18:41:57
89 28 21 2024-05-14 18:31:54
90 28 22 2024-05-14 18:21:51
91 28 22 2024-05-14 18:11:48
92 28 22 2024-05-14 18:01:46
93 28 22 2024-05-14 17:51:43
94 28 22 2024-05-14 17:41:40
95 28 22 2024-05-14 17:31:39
96 28 22 2024-05-14 17:21:37
97 28 23 2024-05-14 17:11:36
98 28 24 2024-05-14 17:01:34
99 28 27 2024-05-14 16:51:32
100 28 28 2024-05-14 16:41:31
1   2   3   4   5       Next